Leadville, CO

1:03 AM MST on November 19, 2017 (GMT -0700)
Lake County

Weather History for KLXV - March, 2013

Change the Weather History Date:

Tuesday, March 26, 2013

  Actual Average Record
Temperature  
Mean Temperature 22 °F -  
Max Temperature 38 °F 39 °F 53 °F (2004)
Min Temperature 6 °F 13 °F -4 °F (2016)
Degree Days  
Heating Degree Days 43 39  
Month to date heating degree days 1135 1081  
Since 1 July heating degree days 8677 8791  
Cooling Degree Days 0 0  
Month to date cooling degree days 0 0  
Year to date cooling degree days 0 0  
Moisture  
Dew Point 12 °F    
Average Humidity 54    
Maximum Humidity 81    
Minimum Humidity 27    
Precipitation  
Precipitation T in 0.03 in 0.34 in (2005)
Month to date precipitation 1.49 0.77  
Year to date precipitation 3.11 2.09  
Sea Level Pressure  
Sea Level Pressure 29.99 in    
Wind  
Wind Speed 8 mph (North)    
Max Wind Speed 22 mph    
Max Gust Speed 28 mph    
Visibility 9 miles    
Events Snow    
T = Trace of Precipitation, MM = Missing Value Source: NWS Daily Summary

Daily Weather History Graph

Daily Weather History Graph

Search for Another Location

Airport or City:

Trip Planner

Search our weather history database for the weather conditions in past years. The results will help you decide how hot, cold, wet, or windy it might be!

Date:

Astronomy

Mar. 26, 2013 Rise Set
Actual Time 6:58 AM MDT 7:23 PM MDT
Civil Twilight 6:31 AM MDT 7:50 PM MDT
Nautical Twilight 6:00 AM MDT 8:21 PM MDT
Astronomical Twilight 5:28 AM MDT 8:54 PM MDT
Moon 7:03 PM MDT (3/26) 6:16 AM MDT (3/26)
Length of Visible Light 13h 18m
Length of Day
12h 24m
Waxing Gibbous, 99% of the Moon is Illuminated
Mar 26
Waxing Gibbous
Mar 27
Full
Apr 2
Last Quarter
Apr 10
New
Apr 18
First Quarter

Hourly Weather History & Observations

Time (MDT) Temp. Windchill Dew Point Humidity Pressure Visibility Wind Dir Wind Speed Gust Speed Precip Events Conditions
12:53 AM 9.0 °F -3.2 °F -6.0 °F 51% 30.14 in 10.0 mi NNE 8.1 mph - N/A   Clear
1:53 AM 8.1 °F -5.3 °F -6.0 °F 53% 30.13 in 10.0 mi NNE 9.2 mph - N/A   Clear
2:53 AM 10.0 °F -1.9 °F -4.0 °F 53% 30.07 in 10.0 mi ENE 8.1 mph - N/A   Mostly Cloudy
3:53 AM 14.0 °F 2.0 °F 1.0 °F 56% 30.02 in 10.0 mi NE 9.2 mph - N/A   Mostly Cloudy
4:53 AM 12.9 °F -0.2 °F 1.9 °F 62% 30.02 in 10.0 mi NE 10.4 mph - N/A   Overcast
5:53 AM 18.0 °F 7.7 °F 10.0 °F 71% 30.02 in 6.0 mi North 8.1 mph - 0.00 in Snow Light Snow
6:53 AM 19.9 °F 8.6 °F 10.0 °F 65% 30.02 in 10.0 mi NNE 10.4 mph - 0.00 in   Overcast
7:53 AM 21.9 °F 11.7 °F 12.0 °F 66% 30.06 in 10.0 mi North 9.2 mph - N/A   Mostly Cloudy
8:53 AM 27.0 °F 18.7 °F 12.9 °F 56% 30.06 in 10.0 mi NNW 8.1 mph - N/A   Mostly Cloudy
9:53 AM 30.9 °F 22.8 °F 14.0 °F 50% 30.04 in 10.0 mi North 9.2 mph 18.4 mph N/A   Scattered Clouds
10:53 AM 32.0 °F 23.0 °F 14.0 °F 48% 30.02 in 10.0 mi North 11.5 mph - N/A   Overcast
11:53 AM 33.1 °F 26.9 °F 14.0 °F 46% 29.99 in 10.0 mi Variable 6.9 mph - N/A   Overcast
12:53 PM 35.1 °F 30.1 °F 12.9 °F 40% 29.95 in 10.0 mi WNW 5.8 mph 21.9 mph N/A   Scattered Clouds
1:53 PM 37.0 °F 26.7 °F 9.0 °F 31% 29.92 in 10.0 mi West 19.6 mph 25.3 mph N/A   Mostly Cloudy
2:53 PM 36.0 °F 27.5 °F 9.0 °F 33% 29.92 in 10.0 mi West 12.7 mph 25.3 mph N/A   Overcast
3:53 PM 36.0 °F 30.3 °F 8.1 °F 31% 29.88 in 10.0 mi West 6.9 mph - N/A   Overcast
4:53 PM 37.0 °F 29.8 °F 7.0 °F 29% 29.88 in 10.0 mi West 10.4 mph 18.4 mph N/A   Mostly Cloudy
5:53 PM 35.1 °F 27.9 °F 6.1 °F 30% 29.86 in 10.0 mi West 9.2 mph 21.9 mph N/A   Overcast
6:53 PM 30.0 °F 22.4 °F 14.0 °F 51% 29.90 in 10.0 mi NW 8.1 mph - N/A   Mostly Cloudy
7:53 PM 27.0 °F 21.6 °F 19.9 °F 75% 29.93 in 10.0 mi NE 4.6 mph - N/A   Overcast
8:24 PM 26.6 °F 20.0 °F 19.4 °F 74% 30.04 in 7.0 mi NNE 5.8 mph - 0.00 in Snow Light Snow
8:42 PM 26.6 °F - 19.4 °F 74% 30.04 in 10.0 mi Calm Calm - 0.00 in   Scattered Clouds
8:53 PM 26.1 °F 20.5 °F 19.9 °F 78% 29.91 in 10.0 mi ENE 4.6 mph - 0.00 in   Clear
9:53 PM 23.0 °F 15.8 °F 17.1 °F 78% 29.92 in 10.0 mi NE 5.8 mph - N/A   Mostly Cloudy
10:53 PM 25.0 °F - 18.0 °F 75% 29.91 in 7.0 mi Calm Calm - 0.00 in Snow Light Snow
11:05 PM 24.8 °F - 17.6 °F 74% 30.07 in 4.0 mi Calm Calm - 0.00 in Snow Light Snow
11:14 PM 24.8 °F - 19.4 °F 80% 30.07 in 7.0 mi Calm Calm - 0.00 in Snow Light Snow
11:32 PM 24.8 °F - 19.4 °F 80% 30.06 in 6.0 mi Calm Calm - 0.00 in Snow Light Snow
11:49 PM 23.0 °F 17.0 °F 19.4 °F 86% 30.06 in 10.0 mi ENE 4.6 mph - 0.00 in   Mostly Cloudy
11:53 PM 23.0 °F 17.0 °F 19.0 °F 85% 29.91 in 10.0 mi ENE 4.6 mph - 0.00 in   Mostly Cloudy